SCP
1 2 2 2 2 2 2 2 3 2 2 2 1 1 1 1 1 0 0 0 0 0 0 0 0 0 0 0 0 0 0 0 0 0 0 0 0 0 0 0 0 0 0
1 2 2 2 2 2 2 2 3 3 2 2 1 1 1 1 1 1 0 0 0 0 0 0 0 0 0 0 0 0 0 0 0 0 0 0 0 0 0 0 0 0 0
1 2 2 2 2 2 2 2 3 3 3 2 2 1 1 1 1 1 1 0 0 0 0 0 0 0 0 0 0 0 0 0 0 0 0 0 0 0 0 0 0 0 0
1 1 2 2 2 2 2 2 2 3 3 2 2 2 1 1 1 1 1 1 1 0 0 0 0 0 0 0 0 0 0 0 0 0 0 0 0 0 0 0 0 0 0
1 1 2 2 2 2 2 2 2 2 3 2 2 2 2 1 1 1 1 1 1 1 1 1 1 0 0 0 0 0 0 0 0 0 0 0 0 0 0 0 0 0 0
1 1 2 2 2 2 2 2 2 2 2 2 2 2 2 2 1 1 1 1 1 1 1 1 1 0 0 0 0 0 0 0 0 0 0 0 0 0 0 0 0 0 0
2 1 1 2 2 2 2 2 2 2 2 3 3 3 2 2 1 1 1 1 1 1 1 1 0 0 0 0 0 0 0 0 0 0 0 0 0 0 0 0 0 0 0
2 2 1 1 2 2 2 2 2 2 2 3 3 3 3 2 2 1 1 1 1 1 1 1 0 0 0 0 0 0 0 0 0 0 0 0 0 0 0 0 0 0 0
2 2 2 1 1 2 2 2 2 2 2 2 3 3 3 2 2 1 1 1 1 1 1 1 1 0 0 0 0 0 0 0 0 0 0 0 0 0 0 0 0 0 0
2 2 2 2 1 1 1 1 1 1 1 2 2 2 2 2 2 1 1 1 1 1 1 1 1 0 0 0 0 0 0 0 0 0 0 0 0 0 0 0 0 0 0
2 2 2 2 2 1 1 1 1 1 1 1 1 1 1 1 1 1 1 1 1 1 1 1 1 0 0 0 0 0 0 0 0 0 0 0 0 0 0 0 0 0 0
2 2 2 2 2 2 1 1 1 1 1 1 1 1 1 1 1 1 1 1 1 1 1 1 1 0 0 0 0 0 0 0 0 0 0 0 0 0 0 0 0 0 0
1 1 2 2 3 2 2 1 1 1 1 1 1 1 1 2 2 1 1 1 1 1 1 1 1 0 0 0 0 0 0 0 0 0 0 0 0 0 0 0 0 0 0
1 1 2 2 3 3 2 2 2 2 2 2 1 1 1 2 2 2 2 1 1 1 1 1 1 0 0 0 0 0 0 0 0 0 0 0 0 0 0 0 0 0 0
1 1 2 2 3 3 2 2 2 2 2 2 2 2 2 2 2 2 2 1 1 1 1 1 1 0 0 0 0 0 0 0 0 0 0 0 0 0 0 0 0 0 0
1 2 2 2 2 2 2 2 1 2 2 2 2 2 2 2 2 2 2 1 1 1 1 1 1 1 0 0 0 0 0 0 0 0 0 0 0 0 0 0 0 0 0
1 2 2 2 2 2 1 1 1 2 2 2 2 2 2 2 2 2 2 2 1 1 1 1 1 1 0 0 0 0 0 0 0 0 0 0 0 0 0 0 0 0 0
1 1 1 1 1 1 1 1 1 2 2 2 2 2 2 2 2 2 2 2 1 1 1 1 1 1 0 0 0 0 0 0 0 0 0 0 0 0 0 0 0 0 0
1 1 1 1 1 1 1 1 1 2 2 2 2 2 2 2 2 2 2 2 2 2 1 1 1 1 0 0 0 0 0 0 0 0 0 0 0 0 0 0 0 0 0
1 0 1 1 1 1 1 1 2 2 2 2 2 2 1 2 2 2 2 2 2 1 1 1 1 1 0 0 0 0 0 0 0 0 0 0 0 0 0 0 0 0 0
1 0 1 1 1 1 1 1 2 2 2 2 2 2 1 1 2 2 2 2 2 1 1 1 1 1 1 1 1 1 0 0 0 0 0 0 0 0 0 1 1 1 1
1 1 1 1 1 1 1 1 2 2 2 2 2 2 1 1 1 2 2 2 2 1 1 1 1 1 1 1 1 0 0 0 0 0 0 0 0 0 0 0 1 1 1
1 1 1 1 0 1 1 1 2 2 2 3 2 2 1 1 1 1 2 2 2 2 1 1 1 1 1 0 0 0 0 0 0 0 0 0 0 0 0 0 0 0 0
1 1 1 0 0 0 0 1 2 2 2 2 2 2 1 1 1 1 1 2 2 1 1 1 1 1 1 0 0 0 0 0 0 0 0 0 0 0 0 0 0 0 0
1 1 0 0 0 0 0 1 1 2 2 2 2 1 1 1 1 1 1 1 1 1 1 1 1 1 1 1 0 0 0 0 0 0 0 0 0 0 0 0 0 0 0
0 0 0 0 0 0 0 1 1 2 2 2 2 1 2 2 1 1 1 1 1 1 1 1 2 1 1 1 1 0 0 0 0 0 0 0 0 0 0 0 0 0 0
Wind_Speed
1 5 9 12 14 14 13 13 12 13 14 15 15 15 14 14 13 12 12 12 12 12 12 13 13 12 12 12 12 12 12 12 12 12 11 11 11 11 11 8 6 10 11
2 6 10 11 13 14 13 12 11 12 13 14 15 15 14 14 13 13 12 12 12 12 12 13 12 12 11 12 12 12 12 12 12 11 8 9 9 10 10 9 9 9 11
2 6 10 10 12 13 13 12 11 12 13 14 14 15 14 14 13 13 12 12 12 12 12 12 12 12 12 12 11 11 11 11 11 7 4 8 10 10 10 10 10 10 10
1 4 8 10 11 12 12 13 12 13 13 13 14 14 14 14 13 13 13 13 12 12 11 12 12 12 12 11 11 11 11 11 8 3 4 7 8 9 8 9 9 9 10
0 3 6 8 10 11 12 12 12 13 13 13 14 14 14 13 13 13 13 12 11 11 11 12 12 12 11 11 10 10 10 9 5 3 6 6 7 8 8 8 8 8 8
0 2 5 6 8 10 11 12 12 13 13 13 13 13 13 14 13 13 12 11 10 11 12 12 11 11 10 10 10 10 9 8 6 5 5 5 6 7 7 7 6 7 7
1 1 3 4 6 8 10 11 12 13 13 13 14 14 14 14 13 13 12 11 11 11 12 12 11 10 10 9 9 9 8 4 3 5 4 4 6 6 5 5 5 5 5
2 1 3 4 4 6 8 10 11 12 13 13 13 14 14 13 13 12 12 13 13 13 12 12 11 10 10 9 9 8 7 4 4 4 4 4 5 4 4 4 3 3 3
3 2 2 4 5 6 7 8 10 11 12 12 12 12 12 11 11 12 12 13 13 13 12 12 11 10 9 9 8 7 5 2 3 3 3 3 4 3 3 2 2 1 1
3 3 3 3 5 6 7 8 8 9 10 11 11 11 10 10 11 11 12 12 12 12 12 11 11 10 9 8 7 7 5 5 3 3 2 3 2 2 2 2 1 1 1
5 4 4 4 4 5 6 6 8 9 10 11 11 11 10 10 11 11 12 11 11 12 11 11 10 9 8 7 6 6 6 4 4 2 2 3 2 3 2 2 2 2 1
7 6 5 5 5 5 4 5 6 7 9 11 10 12 10 9 8 8 10 10 10 11 11 11 9 9 8 7 7 7 5 5 3 3 2 2 3 4 3 3 3 3 2
9 8 7 6 5 5 4 4 4 4 6 9 11 11 9 8 6 7 6 8 9 10 10 10 10 8 7 5 5 6 5 4 3 2 3 3 4 4 4 4 4 4 4
10 10 8 7 6 6 6 5 5 5 5 6 8 10 8 6 7 7 6 7 7 6 8 8 6 7 7 7 7 6 6 4 3 2 2 3 4 5 5 5 5 5 5
11 10 10 8 8 7 6 5 6 6 6 7 7 9 10 8 8 8 6 7 7 7 7 7 7 8 7 7 6 6 6 6 5 4 3 5 5 5 6 6 6 6 5
12 11 9 9 9 8 7 6 6 6 6 7 7 9 11 8 8 8 8 8 8 7 7 7 8 7 6 5 6 7 6 6 6 5 4 5 6 6 6 7 7 6 6
11 10 10 9 9 10 9 8 7 6 7 7 7 9 10 9 9 8 8 8 7 7 8 7 7 6 5 5 6 7 6 6 6 6 5 4 5 6 6 7 7 7 7
11 10 10 8 9 9 9 8 6 6 7 7 7 8 10 11 11 9 8 8 8 7 7 7 6 6 6 6 5 5 5 5 7 7 5 5 5 4 6 6 6 6 6
10 10 10 9 9 9 8 7 7 6 7 7 7 7 9 11 11 9 7 7 8 7 7 7 7 7 6 6 5 5 5 5 6 6 7 7 6 5 5 5 5 5 5
9 9 9 9 8 8 6 6 5 6 7 7 7 8 10 9 11 9 7 8 8 7 6 7 7 6 6 5 4 5 5 6 6 6 7 6 6 7 6 6 5 5 6
7 8 8 8 8 7 6 6 6 7 7 7 7 9 10 10 10 9 7 8 8 7 8 8 7 7 6 4 4 4 5 7 7 6 6 6 7 7 7 7 6 5 5
6 7 7 8 7 7 6 6 5 5 5 6 5 7 9 9 9 8 9 7 8 7 8 8 7 6 5 5 4 3 4 5 6 6 6 6 7 6 7 8 8 7 6
6 6 5 6 7 7 7 5 4 4 4 4 5 5 6 7 8 8 9 8 8 7 7 8 8 9 6 6 6 4 4 5 3 5 7 7 7 6 7 7 9 9 8
6 5 5 4 5 5 6 6 7 5 5 5 4 4 5 5 6 7 7 8 7 6 7 8 8 7 7 6 5 5 5 3 4 4 5 7 8 9 9 7 8 8 9
5 4 3 2 2 3 4 5 5 5 4 3 3 4 4 4 4 5 6 6 6 5 6 7 7 8 6 6 5 5 5 4 6 5 5 5 6 7 7 8 7 7 8
5 3 1 1 2 2 3 3 3 4 4 3 3 3 3 3 3 4 4 5 5 5 6 6 7 8 7 8 6 6 5 5 5 6 6 6 7 6 7 7 7 7 7
Wind_Direction
227 184 159 169 164 160 159 158 157 155 155 155 153 152 152 152 151 149 147 143 141 139 137 133 130 125 122 115 110 107 105 101 96 90 84 83 86 87 83 74 79 83 77
272 188 158 167 166 164 162 161 159 155 156 157 157 156 155 156 156 154 152 148 145 143 140 136 132 129 125 118 112 109 105 102 98 94 96 96 86 86 84 69 56 76 78
293 180 166 167 166 166 164 162 161 159 160 160 160 159 160 161 160 159 157 152 150 147 142 139 134 129 123 119 116 113 110 107 104 107 150 112 97 86 84 81 78 80 78
294 180 172 161 170 169 167 166 166 165 165 165 164 163 164 165 164 163 160 157 154 149 142 138 134 129 125 123 121 118 115 112 112 164 126 99 100 92 89 84 80 76 74
296 181 157 161 173 174 171 172 171 171 171 170 168 168 168 168 168 168 164 160 155 148 143 139 135 133 131 129 127 124 121 119 132 164 103 102 98 96 91 86 83 81 78
332 189 150 162 179 179 176 176 178 178 178 176 173 172 172 172 172 172 166 159 151 146 146 142 141 139 138 136 133 130 129 137 175 118 114 110 103 103 98 93 89 87 82
332 223 164 161 177 185 184 182 184 184 183 181 178 178 177 177 176 171 165 158 153 152 150 149 149 147 145 143 139 135 136 167 158 124 122 113 100 104 107 103 95 89 83
325 261 188 166 181 189 192 191 193 192 190 186 184 182 181 179 177 171 164 162 160 159 156 156 157 156 155 150 145 142 147 201 163 138 133 119 103 117 114 110 102 95 89
323 286 235 201 195 193 196 197 199 198 194 191 188 185 183 179 175 171 168 169 167 165 162 161 162 163 161 157 152 150 153 228 201 144 144 123 119 140 133 131 128 127 113
308 289 272 241 219 211 205 199 201 202 198 195 191 186 181 177 177 172 174 173 172 169 166 166 167 168 164 161 158 156 160 216 194 164 170 123 148 170 165 160 163 169 181
298 287 276 263 243 229 222 208 205 201 199 197 196 185 184 192 189 182 185 173 174 172 169 170 172 168 164 161 160 163 189 216 190 195 178 107 201 202 205 210 220 223 230
290 289 275 265 254 243 232 219 216 209 202 205 204 195 198 200 196 191 169 171 173 171 171 173 172 169 187 178 167 185 210 213 206 202 154 153 225 223 225 229 232 234 235
282 279 274 263 253 244 233 227 222 214 209 210 206 200 198 196 191 189 175 174 179 179 183 177 181 188 197 192 189 201 210 213 218 209 168 184 242 237 230 228 229 234 231
276 271 268 260 252 243 236 230 224 218 212 209 205 203 198 192 193 187 187 186 186 189 190 189 195 190 200 199 204 206 205 215 220 220 168 188 244 247 241 237 237 236 229
269 266 264 258 250 240 232 230 226 221 217 211 206 205 202 197 194 190 190 189 191 191 192 194 197 194 201 204 209 214 215 219 223 221 192 192 232 248 249 249 247 237 236
264 261 258 254 248 239 233 228 228 225 219 214 208 207 204 202 198 192 192 193 193 194 195 196 199 197 202 207 214 218 224 226 229 229 230 198 210 236 247 249 250 246 246
265 262 255 250 244 238 235 232 228 225 220 214 210 208 205 205 202 196 196 194 195 194 194 196 197 198 204 209 219 221 228 233 233 236 234 237 217 212 231 244 246 247 253
263 259 254 248 240 234 233 231 227 224 220 215 211 209 208 207 204 199 199 197 193 190 191 193 195 198 202 209 218 219 227 231 237 238 234 233 236 227 213 224 241 248 257
265 258 252 244 240 233 229 225 226 224 222 217 212 210 209 207 203 200 202 199 192 191 193 195 200 203 204 208 218 225 231 231 235 235 234 232 233 235 235 202 221 241 250
264 257 250 243 236 231 225 221 221 221 220 218 214 212 209 207 204 201 203 200 194 191 191 195 201 205 208 203 214 227 233 234 235 234 235 231 231 234 237 234 225 220 229
267 254 247 240 232 221 212 211 212 215 212 212 213 214 209 207 205 203 201 199 195 196 196 195 196 202 205 194 203 225 235 234 236 232 233 235 231 231 234 233 236 238 223
268 258 247 237 231 221 217 213 215 216 215 215 211 213 209 205 203 203 201 198 197 196 198 198 196 199 199 192 198 212 232 228 225 231 230 233 237 230 233 235 235 234 237
276 262 252 243 234 223 215 208 204 201 207 210 205 207 206 201 201 202 202 200 199 199 199 200 198 201 201 199 205 209 222 237 234 220 228 229 231 234 234 232 234 235 236
293 276 259 243 229 222 210 205 203 202 206 212 207 198 194 197 202 204 204 202 200 200 201 203 202 206 206 203 209 225 241 251 236 234 220 229 233 236 236 232 233 234 234
314 298 273 232 210 206 201 199 198 198 198 200 198 192 196 196 203 206 206 204 201 201 204 204 205 210 213 212 206 209 225 237 240 244 247 237 238 238 238 237 237 236 233
348 348 352 151 166 175 172 173 182 189 183 191 195 191 193 192 194 207 208 205 205 205 207 210 213 215 218 221 218 213 217 218 224 237 251 251 251 245 238 239 240 239 237